FW3988 Weather Reports


Display with metric or nautical units.
time (UTC)temp
F
wind
direction
speed
MPH
gust
MPH
rain 1hr
in
rain 24hr
in
rain mn
in
humidity
%
barometer
mb
20260507003014 81 289 8.0 15.0 0.00 0.00 0.00 71 1010.8
20260507001602 82 287 9.0 15.0 0.00 0.00 0.00 69 1010.7
20260507000145 83 286 9.0 15.0 0.00 0.00 0.00 68 1010.6
20260506234542 82 269 7.0 16.0 0.00 0.00 0.00 68 1010.5
20260506233041 83 288 7.0 13.0 0.00 0.00 0.00 65 1010.5
20260506231537 84 266 8.0 14.0 0.00 0.00 0.00 65 1010.6
20260506230133 83 293 7.0 15.0 0.00 0.00 0.00 65 1010.6
20260506224556 84 269 8.0 14.0 0.00 0.00 0.00 59 1010.6
20260506223100 85 299 7.0 14.0 0.00 0.00 0.00 61 1010.7
20260506221547 85 273 7.0 12.0 0.00 0.00 0.00 62 1010.7
20260506220007 84 279 6.0 11.0 0.00 0.00 0.00 63 1010.9
20260506214609 85 268 6.0 16.0 0.00 0.00 0.00 61 1010.9
20260506214502 84 279 8.0 16.0 0.00 0.00 0.00 60 1010.8
20260506213056 85 246 6.0 14.0 0.00 0.00 0.00 63 1011.0
20260506211547 86 254 5.0 13.0 0.00 0.00 0.00 67 1011.0
20260506210138 85 248 7.0 11.0 0.00 0.00 0.00 66 1011.0
20260506204510 85 237 7.0 13.0 0.00 0.00 0.00 68 1011.2
20260506203100 85 315 7.0 12.0 0.00 0.00 0.00 67 1011.4
20260506203001 85 253 6.0 12.0 0.00 0.00 0.00 66 1011.5
20260506201548 85 255 6.0 13.0 0.00 0.00 0.00 66 1011.7
20260506200142 85 236 7.0 14.0 0.00 0.00 0.00 65 1011.8
20260506194541 85 233 7.0 12.0 0.00 0.00 0.00 63 1012.0
20260506193034 84 259 4.0 12.0 0.00 0.00 0.00 67 1012.1
20260506191515 83 224 7.0 13.0 0.00 0.00 0.00 68 1012.4
20260506190029 83 280 6.0 14.0 0.00 0.00 0.00 68 1012.6
20260506184516 83 213 7.0 11.0 0.00 0.00 0.00 69 1012.6
20260506183108 84 277 6.0 14.0 0.00 0.00 0.00 66 1012.5
20260506181547 84 288 5.0 11.0 0.00 0.00 0.00 63 1012.6
20260506180135 84 265 4.0 10.0 0.00 0.00 0.00 67 1012.7
20260506174507 83 242 5.0 10.0 0.00 0.00 0.00 70 1012.8
20260506173127 82 286 4.0 8.0 0.00 0.00 0.00 67 1012.8
20260506173002 82 289 5.0 10.0 0.00 0.00 0.00 67 1012.9
20260506171556 82 263 6.0 10.0 0.00 0.00 0.00 69 1012.9
20260506170028 82 272 4.0 11.0 0.00 0.00 0.00 67 1012.8
20260506164518 81 279 3.0 8.0 0.00 0.00 0.00 68 1012.7
20260506163009 81 233 5.0 8.0 0.00 0.00 0.00 70 1012.6
20260506161555 80 248 5.0 9.0 0.00 0.00 0.00 72 1012.6
20260506160143 80 271 4.0 9.0 0.00 0.00 0.00 73 1012.5
20260506154509 80 340 1.0 5.0 0.00 0.00 0.00 69 1012.5
20260506153006 78 319 2.0 6.0 0.00 0.00 0.00 72 1012.4
20260506151556 77 279 3.0 7.0 0.00 0.00 0.00 74 1012.4
20260506150146 76 306 1.0 3.0 0.00 0.00 0.00 77 1012.4
20260506144532 75 321 0.0 2.0 0.00 0.00 0.00 80 1012.4
20260506143101 74 10 0.0 2.0 0.00 0.00 0.00 82 1012.3
20260506143002 74 10 0.0 3.0 0.00 0.00 0.00 83 1012.3
20260506141550 73 13 1.0 3.0 0.00 0.00 0.00 85 1012.3
20260506140134 72 9 0.0 4.0 0.00 0.00 0.00 86 1012.3
20260506134515 72 347 1.0 3.0 0.00 0.00 0.00 87 1012.2
20260506133138 71 316 2.0 4.0 0.00 0.00 0.00 89 1012.2
20260506131559 70 330 1.0 4.0 0.00 0.00 0.00 90 1012.0
20260506130014 70 350 0.0 2.0 0.00 0.00 0.00 91 1011.7
20260506124504 69 350 1.0 3.0 0.00 0.00 0.00 91 1011.5
20260506123053 70 26 2.0 4.0 0.00 0.00 0.00 90 1011.5
20260506121556 70 24 1.0 4.0 0.00 0.00 0.00 90 1011.3
20260506120151 70 17 1.0 4.0 0.00 0.00 0.00 89 1011.3
20260506114607 70 11 0.0 0.0 0.00 0.00 0.00 88 1011.2
20260506113102 70 11 0.0 2.0 0.00 0.00 0.00 88 1011.2
20260506111548 70 11 1.0 3.0 0.00 0.00 0.00 88 1010.9
20260506110140 71 335 1.0 2.0 0.00 0.00 0.00 87 1010.9
20260506104555 71 309 1.0 2.0 0.00 0.00 0.00 86 1010.9
20260506103033 71 309 0.0 2.0 0.00 0.00 0.00 86 1011.0
20260506101505 71 309 0.0 0.0 0.00 0.00 0.00 86 1011.0
20260506100017 72 309 0.0 0.0 0.00 0.00 0.00 84 1010.9
20260506094603 72 309 0.0 0.0 0.00 0.00 0.00 85 1010.8
20260506093035 72 309 0.0 0.0 0.00 0.00 0.00 86 1010.8
20260506091600 72 309 0.0 0.0 0.00 0.00 0.00 84 1011.0
20260506091500 73 309 0.0 0.0 0.00 0.00 0.00 84 1011.1
20260506090005 73 309 0.0 0.0 0.00 0.00 0.00 86 1011.0
20260506084600 73 309 0.0 0.0 0.00 0.00 0.00 87 1011.2
20260506083037 73 309 0.0 2.0 0.00 0.00 0.00 88 1011.2
20260506081513 73 309 0.0 2.0 0.00 0.00 0.00 88 1011.2
20260506080152 73 309 0.0 0.0 0.00 0.00 0.00 88 1011.3
20260506073005 74 309 0.0 3.0 0.00 0.00 0.00 87 1011.5
20260506071555 74 309 0.0 2.0 0.00 0.00 0.00 86 1011.7
20260506070134 74 309 0.0 2.0 0.00 0.00 0.00 86 1011.7
20260506061545 74 286 0.0 3.0 0.00 0.00 0.00 83 1012.0
20260506044500 76 304 2.0 5.0 0.00 0.00 0.00 84 1011.7
20260506043057 77 288 4.0 12.0 0.00 0.00 0.00 84 1011.7
20260506041548 77 287 3.0 8.0 0.00 0.00 0.00 82 1011.5
20260506040136 77 313 3.0 8.0 0.00 0.00 0.00 82 1011.3
20260506034552 77 278 3.0 10.0 0.00 0.00 0.00 82 1011.3
20260506033028 77 242 5.0 10.0 0.00 0.00 0.00 83 1011.1
20260506031516 77 296 5.0 9.0 0.00 0.00 0.00 82 1011.0
20260506030015 77 288 4.0 9.0 0.00 0.00 0.00 82 1010.7
20260506024508 77 280 4.0 10.0 0.00 0.00 0.00 82 1010.6
20260506023058 78 273 3.0 9.0 0.00 0.00 0.00 81 1010.3
20260506021549 78 283 3.0 8.0 0.00 0.00 0.00 81 1010.2
20260506020133 78 265 4.0 10.0 0.00 0.00 0.00 80 1010.2
20260506014515 78 296 5.0 8.0 0.00 0.00 0.00 79 1010.0
20260506013014 78 277 5.0 9.0 0.00 0.00 0.00 79 1009.7
20260506011509 79 288 6.0 11.0 0.00 0.00 0.00 78 1009.6
20260506010143 80 302 5.0 11.0 0.00 0.00 0.00 76 1009.4
20260506004522 80 268 5.0 11.0 0.00 0.00 0.00 76 1009.4